Regional Weather Roundup
Issued by NWS Upton, NY

Current Version | Previous Version | Graphics & Text | Print | Product List | Glossary Off
Versions: 1 2 3 4 5 6 7 8 9 10 11 12 13 14 15 16 17 18 19 20 21 22 23 24 25 26 27 28 29 30 31 32 33 34 35 36 37 38 39 40 41 42 43 44 45 46 47 48 49

000
ASUS41 KOKX 030804
RWROKX

REGIONAL WEATHER ROUNDUP
NATIONAL WEATHER SERVICE NEW YORK NY
400 AM EDT THU SEP 03 2015

NOTE: "FAIR" INDICATES FEW OR NO CLOUDS BELOW 12,000 FEET WITH NO
SIGNIFICANT WEATHER AND/OR OBSTRUCTIONS TO VISIBILITY.

NYZ071-072-176-178-NJZ106-104-030900-
NEW YORK CITY METRO AREA


CITY           SKY/WX    TMP DP  RH WIND       PRES   REMARKS
CENTRAL PARK   CLEAR     77  66  68 CALM      29.89S
LAGUARDIA APRT CLEAR     78  68  71 NW3       29.85S
KENNEDY INTL   CLEAR     75  71  87 CALM      29.86S
NEWARK/LIBERTY CLEAR     75  68  78 CALM      29.86S
BRNX BOT. GARD   N/A     72  66  83 NE1       29.87R
TETERBORO      CLEAR     73  65  75 CALM      29.85S
$$

NYZ177-179-078>081-030900-
LONG ISLAND NEW YORK

CITY           SKY/WX    TMP DP  RH WIND       PRES   REMARKS
FARMINGDALE    CLEAR     75  72  90 CALM      29.86S
ISLIP          CLEAR     70  67  90 CALM      29.84F
SHIRLEY        MOCLDY    69  67  93 CALM      29.86F
WESTHAMPTON    CLEAR     63  62  97 CALM      29.88F
MONTAUK POINT    N/A     73  70  90 S3        29.87F
$$

NYZ052-065-067-030900-
HUDSON VALLEY

CITY           SKY/WX    TMP DP  RH WIND       PRES   REMARKS
WHITE PLAINS   CLEAR     69  65  86 NW3       29.86F
NEWBURGH       CLEAR     66  64  94 CALM      29.90F
MONTGOMERY     CLEAR     63  61  93 CALM      29.88S FOG
POUGHKEEPSIE   CLEAR     65  62  90 CALM      29.87S
ALBANY         PTCLDY    67  64  90 CALM      29.88S
$$

NJZ001-105-106-008-010-013-015-019>022-104-030900-
NEW JERSEY

CITY           SKY/WX    TMP DP  RH WIND       PRES   REMARKS
NEWARK/LIBERTY CLEAR     75  68  78 CALM      29.86S
TETERBORO      CLEAR     73  65  75 CALM      29.85S
CALDWELL       CLEAR     69  65  86 CALM      29.88S
MORRISTOWN     FOG       61  57  88 CALM      29.88S VSB 1/4
SOMERVILLE     CLEAR     66  63  90 CALM      29.86S FOG
SUSSEX         CLEAR     64  60  87 CALM      29.90S FOG
ANDOVER          N/A     63  62  97 CALM      29.91S
TRENTON        CLEAR     71  66  84 NW5       29.87S
MILLVILLE      FOG       68  66  93 CALM      29.87F VSB 1
ATLANTIC CITY    N/A     72  68  87 W3        29.87S FOG
WRIGHTSTOWN    CLEAR     69  69  99 SW1       29.85S
TOMS RIVER     CLEAR     66  64  94 CALM      29.87S
BELMAR         CLEAR     70  64  83 NW3       29.87S
$$

PAZ047>061-062-071-030900-
EASTERN PENNSYLVANIA

CITY           SKY/WX    TMP DP  RH WIND       PRES   REMARKS
PHILADELPHIA   CLEAR     77  64  64 N5        29.88S
ALLENTOWN      CLEAR     68  63  84 SW6       29.90R
SCRANTON       CLEAR     66  62  87 E3        29.93S FOG
$$

CTZ002-004>006-009-010-012-RIZ004-006-007-MAZ004-011-015-030900-
SOUTHERN NEW ENGLAND
 IN CT

CITY           SKY/WX    TMP DP  RH WIND       PRES   REMARKS
BRADLEY INTL   CLEAR     66  63  90 CALM      29.85S
HARTFORD       CLEAR     69  65  86 S3        29.85F
DANBURY        CLEAR     63  60  90 SW3       29.89S FOG
WTRBRY/OXFORD  CLEAR     64  57  77 CALM      29.90S
BRIDGEPORT     CLEAR     71  64  78 CALM      29.86S
MERIDEN        CLEAR     64  61  90 CALM      29.86F FOG
NEW HAVEN      CLEAR     66  64  93 CALM      29.86F
CHESTER        NOT AVBL
GROTON         PTCLDY    67  67 100 CALM      29.85F FOG
WILLIMANTIC    PTCLDY    64  61  90 CALM      29.87S

 IN RI

CITY           SKY/WX    TMP DP  RH WIND       PRES   REMARKS
PROVIDENCE     CLEAR     69  64  84 SW5       29.85F
BLOCK ISLAND   CLEAR     72  70  94 W9        29.86F
WESTERLY       PTCLDY    66  63  90 CALM      29.86F

 IN MA

CITY           SKY/WX    TMP DP  RH WIND       PRES   REMARKS
BOSTON         PTCLDY    71  65  81 SW3       29.83F
WORCESTER      CLEAR     68  63  84 W7        29.88F
WESTFIELD      CLEAR     64  63  96 CALM      29.86S
PROVINCETOWN     N/A     68  61  77 SW6       29.84S
NANTUCKET        N/A    N/A N/A N/A MISG      29.87S
$$

ANZ330-335-338-340-345-350-353-355-030900-
COASTAL MARINE OBSERVATIONS


STATION/POSITION TIME  SKY/WX   TEMP    WIND        PRES    VSBY  WAVE
                                AIR SEA DIR/SP/G                  HT/PER
                 (UTC)          (F)     (DEG/KT/KT) (MB)    (MI)  (FT/S)
NY HARB ENTRANCE 0650            76 77  270/  6/  8 1010.8          2/ 9
4S FIRE IS       NOT AVBL
20S FIRE ISLAND  0650            75 75  220/  6/  6 1011.1          2/ 7
GREAT SOUTH BAY  0715            76 78  260/  8/ 10   N/A
23SW MTP         0750            74 73  230/  6/  8 1011.0          2/ 9
HUDSON CANYON    NOT AVBL
KINGS POINT      0700            75 74  170/  1/  2 1010.3
EXECUTION ROCKS  0700            75      50/  4/  4   N/A
CENTRAL LI SOUND NOT AVBL
EASTERN LI SOUND 0700            72 71  240/  4/  6   N/A
ROBBINS REEF     0700            77     280/  5/  5 1010.0
$$


>>>>>>>>>>>>>>>>>>>>>>>>>>>> KEY <<<<<<<<<<<<<<<<<<<<<<<<<<<
>                                                          <
>     SKY/WX - SKY CONDITION/PRESENT WEATHER               <
>     TMP    - TEMPERATURE IN FAHRENHEIT                   <
>     DP     - DEWPOINT IN FAHRENHEIT                      <
>     RH     - RELATIVE HUMIDITY IN PERCENT                <
>     WIND   - DIRECTION AND SPEED IN MPH                  <
>     PRES   - MEAN SEA LEVEL PRESSURE IN INCHES OF HG     <
>     WCI    - WIND CHILL INDEX                            <
>     VSB    - VISIBILITY IN MILES                         <
>     HX     - HEAT INDEX                                  <
>     TC     - TEMPERATURE IN CELSIUS                      <
>     VRB    - VARIABLE WIND DIRECTION                     <
>                                                          <
>>>>>>>>>>>>>>>>>>>>>>>>>>>> KEY <<<<<<<<<<<<<<<<<<<<<<<<<<<




USA.gov is the U.S. government's official web portal to all federal, state and local government web resources and services.